This demonstration page uses our WeatherBlox Daily Observations layout. Learn more.

Left ArrowRight Arrow

Hourly Observations for May 24, 2021

Temp ( °F °C ) Dew Point ( °F °C ) Humidity (%) Winds ( mph kmh ) Pressure ( in mb ) Visibility ( mi km ) Precip ( " mm )
12:53 am 00:53 Clear 77 25 59 15 54 54 SE 24 39 29.83 1010 10 16 0.00 0.00
1:53 am 01:53 Clear 76 24.4 59 15 56 56 SE 23 37 29.80 1009 10 16 0.00 0.00
2:53 am 02:53 Clear 74 23.3 62 16.7 67 67 SE 24 39 29.78 1009 10 16 0.00 0.00
3:53 am 03:53 Clear 72 22.2 63 17.2 73 73 SE 20 31 29.80 1009 10 16 0.00 0.00
4:53 am 04:53 Clear 71 21.7 62 16.7 73 73 SE 23 37 29.82 1010 10 16 0.00 0.00
5:53 am 05:53 Clear 70 21.1 62 16.7 76 76 SSE 14 22 29.84 1011 10 16 0.00 0.00
6:53 am 06:53 Sunny 69 20.6 62 16.7 78 78 SE 15 24 29.83 1010 10 16 0.00 0.00
7:53 am 07:53 Sunny 69 20.6 62 16.7 78 78 SE 13 20 29.85 1011 10 16 0.00 0.00
8:53 am 08:53 Sunny 72 22.2 62 16.7 71 71 ESE 8 13 29.86 1011 10 16 0.00 0.00
9:53 am 09:53 Sunny 77 25 58 14.4 52 52 SSE 10 17 29.87 1011 10 16 0.00 0.00
10:53 am 10:53 Sunny 80 26.7 56 13.3 44 44 SSE 10 17 29.86 1011 10 16 0.00 0.00
11:53 am 11:53 Sunny 83 28.3 56 13.3 40 40 ESE 7 11 29.85 1011 10 16 0.00 0.00
12:53 pm 12:53 Sunny 86 30 55 12.8 35 35 ESE 9 15 29.83 1010 10 16 0.00 0.00
1:53 pm 13:53 Sunny 87 30.6 55 12.8 34 34 ESE 12 19 29.81 1009 10 16 0.00 0.00
2:53 pm 14:53 Sunny 89 31.7 56 13.3 33 33 SSE 16 26 29.79 1009 10 16 0.00 0.00
3:53 pm 15:53 Sunny 87 30.6 55 12.8 34 34 SSE 12 19 29.78 1009 10 16 0.00 0.00
4:53 pm 16:53 Sunny 90 32.2 53 11.7 28 28 SE 13 20 29.75 1007 10 16 0.00 0.00
5:53 pm 17:53 Sunny 89 31.7 52 11.1 28 28 SSE 10 17 29.73 1007 10 16 0.00 0.00
6:53 pm 18:53 Sunny 90 32.2 50 10 25 25 SSE 13 20 29.71 1006 10 16 0.00 0.00
7:53 pm 19:53 Sunny 88 31.1 48 8.9 25 25 SE 18 30 29.72 1007 10 16 0.00 0.00
8:53 pm 20:53 Clear 79 26.1 58 14.4 49 49 SSE 22 35 29.77 1008 10 16 0.00 0.00
9:37 pm 21:37 Mostly Clear with Nearby Thunderstorms 78 25.6 61 16.1 56 56 S 10 17 29.79 1009 10 16 0.00 0.00
9:48 pm 21:48 Mostly Cloudy with Thunderstorms 75 24 54 12 47 47 N 26 43 29.83 1010 10 16 0.00 0.00
9:53 pm 21:53 Mostly Cloudy with Thunderstorms 73 22.8 53 11.7 50 50 N 23 37 29.87 1012 10 16 0.00 0.00
9:57 pm 21:57 Mostly Cloudy with Nearby Thunderstorms 74 23.3 53 11.7 48 48 NNW 23 37 29.86 1011 10 16 0.00 0.00
10:12 pm 22:12 Mostly Cloudy with Light Rain 70 21.1 54 12.2 57 57 NNW 21 33 29.89 1012 7 11 0.02 0.51
10:22 pm 22:22 Mostly Cloudy with Nearby Thunderstorms 67 19.4 58 14.4 73 73 NNW 10 17 29.92 1013 7 11 0.04 1.02
10:48 pm 22:48 Cloudy 68 20 57 14 69 69 NE 16 26 29.87 1011 10 16 0.04 1.02
10:53 pm 22:53 Cloudy 69 20.6 58 14.4 68 68 NNE 14 22 29.84 1010 10 16 0.04 1.02
11:11 pm 23:11 Mostly Cloudy 69 20.6 57 13.9 66 66 SE 20 31 29.81 1010 10 16 0.00 0.00
11:53 pm 23:53 Clear 70 21.1 54 12.2 57 57 SE 10 17 29.83 1010 10 16 0.00 0.00

Powered by AerisWeather